Regional Weather Roundup
Issued by NWS Goodland, KS

Home | Current Version | Previous Version | Text Only | Print | Product List | Glossary Off
Versions: 1 2 3 4 5 6 7 8 9 10 11 12 13 14 15 16 17 18 19 20 21 22 23 24 25 26 27 28 29 30 31 32 33 34 35 36 37 38 39 40 41 42 43 44 45 46 47 48 49 50

072
ASUS43 KGLD 010259
RWRGLD

GOODLAND FORECAST AREA HOURLY WEATHER ROUNDUP
NATIONAL WEATHER SERVICE GOODLAND KS
900 PM MDT SAT APR 30 2016

...OFFICIAL OBSERVATIONS...

CITY           SKY/WX    TMP DP  RH WIND       PRES   REMARKS
GOODLAND KS    CLOUDY    35  33  92 N21G31    29.98R
HILL CITY KS   CLOUDY    42  37  82 NW10      29.94R
IMPERIAL NEB   LGT RAIN  35  33  92 N18       30.00R FOG
MCCOOK NEB     CLOUDY    38  34  85 N14       29.95R
AKRON CO       CLOUDY    32  30  92 N23       30.07R WCI  19
BURLINGTON CO  CLOUDY    35  31  85 N21G28    30.01R
LIMON CO       MIX PCPN  32  30  92 N32G41    30.07R WCI  17
$$

...UNOFFICIAL OBSERVATIONS...

CITY           SKY/WX    TMP DP  RH WIND       PRES   REMARKS
COLBY KS       CLOUDY    37  37 100 NW20G29   29.97R
GOVE KS          N/A     40  32  73 MISG        N/A
LENORA KS        N/A     40  32  73 MISG        N/A
NORTON KS      CLOUDY    39  34  81 NW14G20   29.92R
SHARON SPRINGS   N/A     37  34  88 NW20G30     N/A
TRIBUNE KS     CLOUDY    39  34  81 NW22G30   30.02R
KIT CARSON CO    N/A     35  32  88 MISG        N/A
YUMA CO          N/A     34  33  95 N14G25      N/A
$$




USA.gov is the U.S. government's official web portal to all federal, state and local government web resources and services.